• Join FlightAware (Why Join?)
  • Login
  • US Flag 
10:48AM EDT


 

Airport Tracker/Info


-or-


 

Live Flight TrackerFlight Track Log ✈ SWA2966 ✈ 25-Apr-2013 ✈ KOAK - KONT

Flight Track Log - Related Links

Times and Time Zones

All times are in EDT time to prevent confusion due to time zone crossing. See the SWA2966 flight status page for this flight to view local times or setup timezone preferences in your user account.

Time Position Orientation Groundspeed Altitude Reporting Facility
EDT Latitude Longitude Course Direction KTS MPH feet Rate Location/Type
03:28PM 37.7333 -122.2500 288° West 152 175 1,600  Level Northern Cal TRACON
03:29PM 37.7500 -122.3167 288° West 221 254 4,100 2,880 Climbing Northern Cal TRACON
03:30PM 37.7500 -122.3833 270° West 242 278 7,400 2,880 Climbing Northern Cal TRACON
03:31PM 37.6833 -122.4333 211° Southwest 270 311 9,900 1,500 Climbing Northern Cal TRACON
03:32PM 37.6092 -122.4631 198° South 291 335 10,400 1,980 Climbing Oakland Center
03:33PM 37.5169 -122.4800 188° South 332 382 14,000 3,480 Climbing Oakland Center
03:34PM 37.4500 -122.3953 135° Southeast 351 404 17,600 2,880 Climbing Oakland Center
03:35PM 37.3886 -122.2942 127° Southeast 362 417 20,000 2,640 Climbing Oakland Center
03:36PM 37.3236 -122.1894 128° Southeast 375 432 23,100 2,820 Climbing Oakland Center
03:37PM 37.2564 -122.0786 127° Southeast 393 452 25,800 2,700 Climbing Oakland Center
03:38PM 37.1711 -121.9425 128° Southeast 410 472 28,700 2,340 Climbing Oakland Center
03:39PM 37.0986 -121.8250 128° Southeast 422 486 30,700 1,860 Climbing Oakland Center
03:40PM 37.0222 -121.7050 129° Southeast 438 504 32,600 1,740 Climbing Oakland Center
03:41PM 36.9456 -121.5814 128° Southeast 450 518 34,300 1,680 Climbing Oakland Center
03:42PM 36.8681 -121.4561 128° Southeast 454 522 36,100 1,560 Climbing Oakland Center
03:43PM 36.7825 -121.3197 128° Southeast 460 529 37,500 1,320 Climbing Oakland Center
03:44PM 36.7028 -121.1919 128° Southeast 464 534 38,900 480 Climbing Oakland Center
03:46PM 36.5813 -121.0706 127° Southeast  Level FlightAware Approximate
03:46PM 36.5450 -120.9442 127° Southeast 454 522 39,000  Level Oakland Center
03:47PM 36.4669 -120.8231 129° Southeast 451 519 39,000  Level Oakland Center
03:48PM 36.3897 -120.6981 127° Southeast 454 522 39,000  Level Oakland Center
03:49PM 36.3117 -120.5753 128° Southeast 454 522 39,000  Level Oakland Center
03:50PM 36.2142 -120.4256 129° Southeast 468 539 39,000  Level Oakland Center
03:51PM 36.1364 -120.3031 128° Southeast 456 525 39,000  Level Oakland Center
03:52PM 36.0569 -120.1817 129° Southeast 453 521 39,000  Level Oakland Center
03:53PM 35.9789 -120.0653 130° Southeast 438 504 39,000  Level Oakland Center
03:54PM 35.8964 -119.9406 129° Southeast 457 526 39,000  Level Oakland Center
03:55PM 35.8161 -119.8164 129° Southeast 461 531 39,000  Level Oakland Center
03:56PM 35.7347 -119.6933 129° Southeast 460 529 39,000  Level Oakland Center
03:57PM 35.6514 -119.5692 130° Southeast 466 536 39,000  Level Oakland Center
03:58PM 35.5694 -119.4456 129° Southeast 464 534 39,000 -240 Level Oakland Center
03:59PM 35.4714 -119.2975 129° Southeast 464 534 38,600 -720 Descending Oakland Center
04:00PM 35.3894 -119.1753 129° Southeast 464 534 37,600 -840 Descending Oakland Center
04:01PM 35.3089 -119.0536 129° Southeast 459 528 37,000 -300 Descending Oakland Center
04:03PM 35.2258 -118.9319 130° Southeast 463 533 37,000 -120 Level Oakland Center
04:04PM 35.1453 -118.8108 129° Southeast 462 532 36,800 -1,320 Descending Oakland Center
04:05PM 35.0631 -118.6922 130° Southeast 458 527 34,300 -2,460 Descending Oakland Center
04:05PM 35.0467 -118.6675 129° Southeast 455 524 33,700 -1,680 Descending Los Angeles Center
04:06PM 34.9475 -118.5236 130° Southeast 461 531 32,200 -1,680 Descending Los Angeles Center
04:07PM 34.8781 -118.4211 130° Southeast 466 536 30,300 -2,340 Descending Los Angeles Center
04:08PM 34.7811 -118.2808 130° Southeast 454 522 27,400 -2,520 Descending Los Angeles Center
04:09PM 34.7036 -118.1692 130° Southeast 439 505 25,100 -2,220 Descending Los Angeles Center
04:10PM 34.6275 -118.0581 130° Southeast 433 498 22,900 -2,160 Descending Los Angeles Center
04:11PM 34.5733 -117.9394 119° Southeast 407 468 20,700 -1,980 Descending Los Angeles Center
04:12PM 34.5236 -117.8311 119° Southeast 378 435 18,900 -1,860 Descending Los Angeles Center
04:13PM 34.4672 -117.7083 119° Southeast 351 404 16,900 -1,860 Descending Los Angeles Center
04:14PM 34.4225 -117.6089 119° Southeast 340 391 15,100 -1,440 Descending Los Angeles Center
04:15PM 34.3806 -117.5175 119° Southeast 331 381 14,000 -1,380 Descending Los Angeles Center
04:16PM 34.3328 -117.4106 118° Southeast 314 361 12,300 -1,860 Descending Los Angeles Center
04:17PM 34.2906 -117.3183 119° Southeast 300 345 10,200 -1,920 Descending Los Angeles Center
04:18PM 34.2417 -117.2428 128° Southeast 288 331 8,300 -1,080 Descending Los Angeles Center
04:19PM 34.1731 -117.2053 156° South 261 300 8,000 -480 Descending Los Angeles Center
04:20PM 34.1072 -117.1947 172° South 260 299 7,400 -660 Descending Los Angeles Center
04:21PM 34.0833 -117.2000 190° South 252 290 7,100 -900 Descending Southern California TRACON
04:22PM 34.0500 -117.2667 239° Southwest 193 222 6,200 -960 Descending Southern California TRACON
04:23PM 34.0500 -117.3333 270° West 183 211 5,200 -1,200 Descending Southern California TRACON
04:24PM 34.0500 -117.3833 270° West 180 207 3,900 -1,080 Descending Southern California TRACON
04:25PM 34.0500 -117.4500 270° West 172 198 3,100 -780 Descending Southern California TRACON
04:26PM 34.0500 -117.5000 270° West 143 165 2,400 -780 Descending Southern California TRACON
04:27PM 34.0500 -117.5333 270° West 130 150 1,600 -840 Descending Southern California TRACON
04:30PM 34.0500 -117.6000 270° West  Level FlightAware Approximate